Location: Newark
(50.8547°N, 2.7256°E)
Time: 22:32:26
(UTC+00:00)

Envisat - Visible Passes

Search period start: 24 January 2020 00:00
Search period end: 03 February 2020 00:00
Orbit: 764 x 766 km, 98.1° (Epoch: 24 January)

Date Brightness Start Highest point End Pass type
(mag) Time Alt. Az. Time Alt. Az. Time Alt. Az.
24 Jan 6.1 05:11:03 10° NE 05:13:55 15° E 05:16:47 10° ESE visible
24 Jan 3.0 06:48:33 10° NNE 06:53:41 89° WNW 06:58:46 10° SSW visible
24 Jan 4.3 18:08:29 10° SSW 18:13:18 42° W 18:18:09 10° NNW visible
25 Jan 4.2 06:11:53 10° NNE 06:16:49 47° E 06:21:41 10° S visible
25 Jan 3.1 17:31:18 10° SSE 17:36:23 84° WSW 17:41:31 10° NNW visible
25 Jan 6.2 19:13:45 10° WSW 19:16:13 13° W 19:18:42 10° NW visible
26 Jan 5.5 05:35:38 10° NE 05:39:45 24° E 05:43:49 10° SE visible
26 Jan 5.2 18:34:43 10° SSW 18:38:59 27° W 18:43:15 10° NW visible
27 Jan 6.3 05:00:32 10° ENE 05:02:27 12° E 05:04:23 10° ESE visible
27 Jan 3.3 06:37:16 10° NNE 06:42:23 76° ESE 06:47:28 10° S visible
27 Jan 3.9 17:57:00 10° S 18:01:56 52° W 18:06:56 10° NNW visible
28 Jan 4.6 06:00:42 10° NNE 06:05:27 38° E 06:10:10 10° SSE visible
28 Jan 3.0 17:20:01 10° SSE 17:25:06 81° ENE 17:30:13 10° NNW visible
28 Jan 5.9 19:01:34 10° SW 19:04:46 17° W 19:07:59 10° NW visible
29 Jan 5.8 05:24:38 10° NE 05:28:19 20° E 05:31:59 10° SE visible
29 Jan 4.9 18:23:03 10° SSW 18:27:35 32° W 18:32:09 10° NNW visible
30 Jan 3.6 06:26:00 10° NNE 06:31:03 62° E 06:36:06 10° S visible
30 Jan 3.5 17:45:34 10° S 17:50:36 64° WSW 17:55:41 10° NNW visible
31 Jan 5.0 05:49:32 10° NNE 05:54:04 31° E 05:58:35 10° SSE visible
31 Jan 3.0 17:08:48 10° SSE 17:13:49 67° ENE 17:18:53 10° N visible
31 Jan 5.7 18:49:36 10° SW 18:53:20 20° W 18:57:05 10° NW visible
01 Feb 6.1 05:13:45 10° NE 05:16:53 16° E 05:20:00 10° SE visible
01 Feb 3.0 06:51:27 10° NNE 06:56:34 83° WNW 07:01:40 10° SSW visible
01 Feb 4.5 18:11:28 10° SSW 18:16:13 39° W 18:21:00 10° NNW visible
02 Feb 4.1 06:14:45 10° NNE 06:19:43 50° E 06:24:40 10° S visible
02 Feb 3.2 17:34:13 10° S 17:39:18 78° WSW 17:44:25 10° NNW visible
02 Feb 6.3 19:17:06 10° WSW 19:19:11 12° W 19:21:17 10° WNW visible
